This is the latest recevied weather packets stored in our database for station/object N9CQL. If no packets are shown the sender has not sent any weather packets the latest 10 day(s).
| Time | Temp. | Humidity | Pressure | Rain* | Wind** | Luminosity | Snow |
|---|---|---|---|---|---|---|---|
| 1777730111 | 7.22° C | 59% | 1018.8 hPa | 0 mm | - | 58 W/m² | - |
| 1777729808 | 6.67° C | 60% | 1018.9 hPa | 0 mm | - | 40 W/m² | - |
| 1777729505 | 6.67° C | 62% | 1018.9 hPa | 0 mm | - | 44 W/m² | - |
| 1777729201 | 6.67° C | 65% | 1018.9 hPa | 0 mm | - | 113 W/m² | - |
| 1777728898 | 6.67° C | 65% | 1019.1 hPa | 0 mm | - | 46 W/m² | - |
| 1777728595 | 6.11° C | 70% | 1018.9 hPa | 0 mm | - | 49 W/m² | - |
| 1777728292 | 5.56° C | 70% | 1019 hPa | 0 mm | - | 47 W/m² | - |
| 1777727989 | 5.56° C | 71% | 1018.8 hPa | 0 mm | - | 39 W/m² | - |
| 1777727686 | 5.56° C | 72% | 1018.9 hPa | 0 mm | - | 39 W/m² | - |
| 1777727383 | 5.56° C | 72% | 1018.7 hPa | 0 mm | - | 36 W/m² | - |
| 1777727080 | 5° C | 74% | 1018.7 hPa | 0 mm | - | 40 W/m² | - |
| 1777726778 | 4.44° C | 76% | 1018.8 hPa | 0 mm | - | 45 W/m² | - |
| 1777726474 | 3.89° C | 82% | 1019 hPa | 0 mm | - | 42 W/m² | - |
| 1777726171 | 3.33° C | 89% | 1018.8 hPa | 0 mm | - | 40 W/m² | - |
| 1777725868 | 2.78° C | 92% | 1019.1 hPa | 0 mm | - | 35 W/m² | - |
| 1777725566 | 2.22° C | 94% | 1018.7 hPa | 0 mm | - | 32 W/m² | - |
| 1777725263 | 1.67° C | 94% | 1019.1 hPa | 0 mm | - | 29 W/m² | - |
| 1777724960 | 1.67° C | 95% | 1018.8 hPa | 0 mm | - | 28 W/m² | - |
| 1777724656 | 1.67° C | 95% | 1018.6 hPa | 0 mm | - | 23 W/m² | - |
| 1777724354 | 1.11° C | 95% | 1018.7 hPa | 0 mm | - | 23 W/m² | - |
| 1777724051 | 1.11° C | 95% | 1018.6 hPa | 0 mm | - | 22 W/m² | - |
| 1777723749 | 0.56° C | 95% | 1018.5 hPa | 0 mm | - | 21 W/m² | - |
| 1777723445 | 0.56° C | 95% | 1018.8 hPa | 0 mm | - | 20 W/m² | - |
| 1777723142 | 0° C | 95% | 1018.6 hPa | 0 mm | - | 20 W/m² | - |
| 1777722839 | 0° C | 95% | 1018.6 hPa | 0 mm | - | 19 W/m² | - |
* Rain latest hour (hover to see other rain measurements)
** Current wind speed in m/s (hover to see current wind gust speed)